Погода в Гуаярамерине

Боливия     10°49′36″S   65°21′13″W
темп.,
°C
ветер,
м/с
пор.,
м/с
влажн.,
%
обл.,
%
осадки,
мм/ч
давл.,
гПа
погр.,
м
1 июля, пт
пт123:00+20св11640 0.0 101311
02:00+19в006864 0.0 101211
05:00+18юв1173100 0.0 101211
08:00+21всв016530 0.0 101473
11:00+31ссз013880 0.0 1014975
14:00+33с23305 0.0 10112285
17:00+30ссв12435 0.0 100969
20:00+24с11590 0.0 101111
2 июля, сб
сб223:00+22ссв11670 0.0 101211
02:00+21с01725 0.0 101111
05:00+20ссв117614 0.0 101112
08:00+23св006714 0.0 101355
11:00+33сз12395 0.0 1014911
14:00+35с233269 0.0 10102856
17:00+31зсз14463 0.0 1009195
20:00+25ссз006047 0.0 101111
3 июля, вс
вс323:00+26св115877 0.0 101315
02:00+23св11710 0.0 101237
05:00+22сз007514 0.0 101311
08:00+24всв00680 0.0 101578
11:00+34с11380 0.0 1015972
14:00+36ссв13275 0.0 10123086
17:00+34с11379 0.0 101025
20:00+27всв11500 0.0 101211
4 июля, пн
пн423:00+24вюв116019 0.0 101311
02:00+23в00637 0.0 101211
05:00+23юз00670 0.0 101311
08:00+25св00630 0.0 101562
11:00+34зсз00360 0.0 1014896
14:00+37с132660 0.0 10113133
17:00+34ссз113771 0.0 100934
20:00+29ссв004519 0.0 101011
5 июля, вт
вт523:00+25ссв11583 0.0 101211
02:00+24св11630 0.0 101113
05:00+23ссв11670 0.0 101111
08:00+25св13650 0.0 1013118
11:00+33ссв23390 0.0 10131094
14:00+36ссв223071 0.0 10103043
17:00+33св114219 0.0 100816
20:00+27ссз115740 0.0 101020